GLO1370 SBSP-SBSR

Flight info

Callsign GLO1370
Flight time 0h 45m
Altitude 34000
Route GERTU UL201 UPONA
Aircraft B737/M-SDE2E3FGHIRWXY/LB1

Departure

Time 2026-05-08 00:30
Airport Congonhas–Deputado Freitas Nobre Airport (SBSP)

Arrival

Time 2026-05-08 01:15
Airport Prof. Eribelto Manoel Reino State Airport (SBSR)
Time Latitude Longitude Altitude Speed Heading
2026-05-08 00:16 -23.62883 -46.65708 2600 ft 0 kts 327°
2026-05-08 00:24 -23.62904 -46.65693 2600 ft 5 kts 329°
2026-05-08 00:24 -23.62918 -46.65687 2600 ft 2 kts 19°
2026-05-08 00:24 -23.62927 -46.65694 2600 ft 2 kts 56°
2026-05-08 00:24 -23.62929 -46.65698 2600 ft 0 kts 56°
2026-05-08 00:26 -23.62919 -46.65681 2600 ft 6 kts 58°
2026-05-08 00:26 -23.62899 -46.65645 2600 ft 6 kts 59°
2026-05-08 00:27 -23.62892 -46.65607 2602 ft 5 kts 112°
2026-05-08 00:27 -23.62919 -46.65580 2602 ft 5 kts 148°
2026-05-08 00:27 -23.62956 -46.65554 2602 ft 7 kts 148°
2026-05-08 00:27 -23.63012 -46.65524 2602 ft 11 kts 163°
2026-05-08 00:28 -23.63098 -46.65490 2601 ft 15 kts 150°
2026-05-08 00:28 -23.63191 -46.65430 2601 ft 15 kts 150°
2026-05-08 00:28 -23.63279 -46.65369 2601 ft 15 kts 147°
2026-05-08 00:28 -23.63363 -46.65309 2601 ft 15 kts 147°
2026-05-08 00:29 -23.63456 -46.65244 2600 ft 16 kts 148°
2026-05-08 00:29 -23.63482 -46.65148 2593 ft 16 kts 46°
2026-05-08 00:29 -23.63429 -46.65120 2600 ft 5 kts 327°
2026-05-08 00:29 -23.63373 -46.65159 2604 ft 31 kts 329°
2026-05-08 00:30 -23.62950 -46.65444 2608 ft 111 kts 328°
2026-05-08 00:30 -23.62120 -46.65995 2785 ft 157 kts 331°
2026-05-08 00:30 -23.61176 -46.66652 3683 ft 162 kts 328°
2026-05-08 00:30 -23.60329 -46.67443 4577 ft 169 kts 302°
2026-05-08 00:31 -23.59867 -46.68730 5097 ft 199 kts 295°
2026-05-08 00:31 -23.59354 -46.70263 5367 ft 230 kts 294°
2026-05-08 00:31 -23.58762 -46.72012 5718 ft 260 kts 294°
2026-05-08 00:31 -23.58140 -46.73855 6902 ft 251 kts 294°
2026-05-08 00:32 -23.57522 -46.75675 7893 ft 257 kts 292°
2026-05-08 00:32 -23.57254 -46.77654 8755 ft 276 kts 267°
2026-05-08 00:32 -23.57891 -46.79671 9719 ft 292 kts 241°
2026-05-08 00:32 -23.59346 -46.81231 10604 ft 308 kts 213°
2026-05-08 00:33 -23.61292 -46.82281 11405 ft 315 kts 217°
2026-05-08 00:33 -23.62816 -46.84011 12234 ft 314 kts 237°
2026-05-08 00:33 -23.64384 -46.85667 13009 ft 327 kts 211°
2026-05-08 00:33 -23.66460 -46.86725 13884 ft 333 kts 204°
2026-05-08 00:34 -23.68600 -46.87748 14544 ft 339 kts 205°
2026-05-08 00:34 -23.70746 -46.88823 15381 ft 340 kts 206°
2026-05-08 00:34 -23.72891 -46.89938 16226 ft 342 kts 210°
2026-05-08 00:34 -23.74741 -46.91547 16964 ft 342 kts 234°
2026-05-08 00:35 -23.75855 -46.93796 17801 ft 336 kts 256°
2026-05-08 00:35 -23.76173 -46.96299 18553 ft 334 kts 276°
2026-05-08 00:35 -23.75741 -46.98764 19255 ft 331 kts 295°
2026-05-08 00:35 -23.74448 -47.00830 19990 ft 331 kts 315°
2026-05-08 00:36 -23.72577 -47.02303 20660 ft 336 kts 332°
2026-05-08 00:36 -23.70430 -47.03381 21325 ft 342 kts 335°
2026-05-08 00:36 -23.68214 -47.04397 21911 ft 349 kts 335°
2026-05-08 00:36 -23.65955 -47.05410 22521 ft 352 kts 335°
2026-05-08 00:37 -23.63708 -47.06421 23044 ft 357 kts 335°
2026-05-08 00:37 -23.61394 -47.07474 23566 ft 361 kts 334°
2026-05-08 00:37 -23.59058 -47.08545 24034 ft 365 kts 334°
2026-05-08 00:38 -23.54361 -47.10717 25037 ft 369 kts 334°
2026-05-08 00:38 -23.51983 -47.11821 25513 ft 372 kts 334°
2026-05-08 00:38 -23.49588 -47.12933 25976 ft 375 kts 333°
2026-05-08 00:38 -23.47173 -47.14054 26412 ft 379 kts 333°
2026-05-08 00:39 -23.44738 -47.15187 26856 ft 382 kts 333°
2026-05-08 00:39 -23.42285 -47.16324 27306 ft 385 kts 333°
2026-05-08 00:39 -23.39811 -47.17470 27745 ft 388 kts 333°
2026-05-08 00:39 -23.37320 -47.18624 28185 ft 390 kts 333°
2026-05-08 00:40 -23.34815 -47.19784 28635 ft 393 kts 333°
2026-05-08 00:40 -23.32292 -47.20953 29059 ft 395 kts 333°
2026-05-08 00:40 -23.29751 -47.22130 29461 ft 399 kts 333°
2026-05-08 00:40 -23.27122 -47.23166 29801 ft 406 kts 342°
2026-05-08 00:41 -23.24372 -47.23790 30158 ft 411 kts 346°
2026-05-08 00:41 -23.21555 -47.24354 30510 ft 413 kts 345°
2026-05-08 00:41 -23.18726 -47.24944 30862 ft 414 kts 343°
2026-05-08 00:41 -23.16006 -47.25921 31141 ft 411 kts 330°
2026-05-08 00:42 -23.13544 -47.27472 31443 ft 407 kts 319°
2026-05-08 00:42 -23.11419 -47.29467 31760 ft 403 kts 311°
2026-05-08 00:42 -23.09430 -47.31629 32067 ft 404 kts 310°
2026-05-08 00:42 -23.07444 -47.33808 32322 ft 407 kts 310°
2026-05-08 00:43 -23.05445 -47.36003 32568 ft 409 kts 310°
2026-05-08 00:43 -23.03434 -47.38200 32853 ft 410 kts 310°
2026-05-08 00:43 -23.01421 -47.40387 33025 ft 410 kts 310°
2026-05-08 00:44 -22.97352 -47.44787 33354 ft 414 kts 310°
2026-05-08 00:44 -22.95340 -47.46954 33687 ft 412 kts 309°
2026-05-08 00:44 -22.93301 -47.49148 33964 ft 413 kts 309°
2026-05-08 00:45 -22.89177 -47.53587 34001 ft 422 kts 309°
2026-05-08 00:45 -22.84967 -47.58114 34001 ft 430 kts 309°
2026-05-08 00:46 -22.80680 -47.62716 33996 ft 434 kts 310°
2026-05-08 00:46 -22.76394 -47.67307 33992 ft 432 kts 310°
2026-05-08 00:47 -22.72104 -47.71902 33992 ft 436 kts 310°
2026-05-08 00:47 -22.67762 -47.76553 34000 ft 441 kts 310°
2026-05-08 00:48 -22.63391 -47.81226 33994 ft 442 kts 310°
2026-05-08 00:48 -22.59019 -47.85895 33994 ft 441 kts 310°
2026-05-08 00:49 -22.54686 -47.90519 33977 ft 440 kts 310°
2026-05-08 00:49 -22.50338 -47.95155 33993 ft 438 kts 310°
2026-05-08 00:50 -22.45999 -47.99779 34002 ft 438 kts 310°
2026-05-08 00:50 -22.41666 -48.04391 34000 ft 437 kts 311°
2026-05-08 00:51 -22.37338 -48.08994 33988 ft 436 kts 311°
2026-05-08 00:51 -22.33013 -48.13589 33999 ft 436 kts 311°
2026-05-08 00:52 -22.28690 -48.18179 33999 ft 436 kts 311°
2026-05-08 00:52 -22.24357 -48.22775 33988 ft 437 kts 311°
2026-05-08 00:53 -22.20024 -48.27365 33993 ft 436 kts 311°
2026-05-08 00:53 -22.15690 -48.31953 33991 ft 436 kts 311°
2026-05-08 00:54 -22.11381 -48.36511 33990 ft 436 kts 311°
2026-05-08 00:54 -22.07042 -48.41096 33985 ft 437 kts 311°
2026-05-08 00:55 -22.02704 -48.45676 33986 ft 436 kts 312°
2026-05-08 00:55 -21.98370 -48.50247 33973 ft 436 kts 312°
2026-05-08 00:56 -21.94003 -48.54852 33167 ft 444 kts 312°
2026-05-08 00:56 -21.91810 -48.57161 32433 ft 439 kts 313°
2026-05-08 00:56 -21.89635 -48.59448 31642 ft 436 kts 313°
2026-05-08 00:56 -21.87470 -48.61726 30835 ft 434 kts 313°
2026-05-08 00:57 -21.85339 -48.63966 29979 ft 434 kts 313°
2026-05-08 00:57 -21.83184 -48.66231 29314 ft 430 kts 314°
2026-05-08 00:57 -21.81048 -48.68475 28596 ft 428 kts 314°
2026-05-08 00:57 -21.78924 -48.70706 27957 ft 424 kts 314°
2026-05-08 00:58 -21.76822 -48.72912 27324 ft 420 kts 314°
2026-05-08 00:58 -21.74737 -48.75100 26699 ft 417 kts 314°
2026-05-08 00:58 -21.72671 -48.77267 26083 ft 414 kts 314°
2026-05-08 00:58 -21.70614 -48.79424 25458 ft 411 kts 314°
2026-05-08 00:59 -21.68575 -48.81562 24823 ft 409 kts 314°
2026-05-08 00:59 -21.66542 -48.83692 24188 ft 407 kts 314°
2026-05-08 00:59 -21.64519 -48.85810 23556 ft 405 kts 314°
2026-05-08 00:59 -21.62505 -48.87920 22828 ft 403 kts 315°
2026-05-08 01:00 -21.60530 -48.89986 22186 ft 399 kts 315°
2026-05-08 01:00 -21.58550 -48.92057 21556 ft 396 kts 315°
2026-05-08 01:00 -21.56586 -48.94111 20941 ft 392 kts 315°
2026-05-08 01:00 -21.54640 -48.96145 20328 ft 389 kts 315°
2026-05-08 01:01 -21.52712 -48.98159 19719 ft 386 kts 316°
2026-05-08 01:01 -21.50794 -49.00162 19093 ft 383 kts 316°
2026-05-08 01:01 -21.48889 -49.02152 18480 ft 381 kts 316°
2026-05-08 01:01 -21.46994 -49.04129 17808 ft 379 kts 316°
2026-05-08 01:02 -21.45112 -49.06091 17171 ft 375 kts 316°
2026-05-08 01:02 -21.43251 -49.08032 16565 ft 371 kts 316°
2026-05-08 01:02 -21.41407 -49.09954 15961 ft 367 kts 316°
2026-05-08 01:02 -21.39583 -49.11854 15374 ft 364 kts 316°
2026-05-08 01:03 -21.37778 -49.13734 14796 ft 360 kts 316°
2026-05-08 01:03 -21.35986 -49.15599 14191 ft 358 kts 316°
2026-05-08 01:03 -21.34203 -49.17454 13566 ft 356 kts 316°
2026-05-08 01:03 -21.32441 -49.19288 12925 ft 348 kts 316°
2026-05-08 01:04 -21.30730 -49.21068 12325 ft 338 kts 316°
2026-05-08 01:04 -21.29067 -49.22798 11779 ft 329 kts 317°
2026-05-08 01:04 -21.27430 -49.24499 11242 ft 327 kts 317°
2026-05-08 01:04 -21.25801 -49.26191 10698 ft 325 kts 317°
2026-05-08 01:05 -21.24232 -49.27821 10501 ft 308 kts 317°
2026-05-08 01:05 -21.22748 -49.29364 10320 ft 287 kts 317°
2026-05-08 01:05 -21.21355 -49.30811 10208 ft 272 kts 318°
2026-05-08 01:05 -21.20012 -49.32203 10117 ft 268 kts 318°
2026-05-08 01:06 -21.18664 -49.33600 10008 ft 270 kts 318°
2026-05-08 01:06 -21.17311 -49.35000 9639 ft 270 kts 318°
2026-05-08 01:06 -21.15969 -49.36391 9292 ft 267 kts 318°
2026-05-08 01:06 -21.14636 -49.37772 8930 ft 265 kts 318°
2026-05-08 01:07 -21.13316 -49.39140 8584 ft 263 kts 318°
2026-05-08 01:07 -21.12005 -49.40498 8244 ft 262 kts 318°
2026-05-08 01:07 -21.10700 -49.41849 7899 ft 260 kts 318°
2026-05-08 01:07 -21.09404 -49.43191 7555 ft 259 kts 318°
2026-05-08 01:08 -21.08112 -49.44527 7235 ft 257 kts 318°
2026-05-08 01:08 -21.06831 -49.45853 6910 ft 256 kts 318°
2026-05-08 01:08 -21.05554 -49.47174 6583 ft 254 kts 319°
2026-05-08 01:08 -21.04286 -49.48486 6265 ft 253 kts 319°
2026-05-08 01:09 -21.03024 -49.49791 5939 ft 251 kts 319°
2026-05-08 01:09 -21.01769 -49.51089 5616 ft 250 kts 319°
2026-05-08 01:09 -21.00498 -49.52293 5501 ft 237 kts 332°
2026-05-08 01:09 -20.99046 -49.52927 5516 ft 221 kts 342°
2026-05-08 01:10 -20.97620 -49.53434 5476 ft 206 kts 342°
2026-05-08 01:10 -20.96307 -49.53899 5374 ft 192 kts 342°
2026-05-08 01:10 -20.95097 -49.54328 5262 ft 181 kts 343°
2026-05-08 01:10 -20.93922 -49.54740 5107 ft 173 kts 346°
2026-05-08 01:11 -20.92761 -49.54723 4899 ft 164 kts 15°
2026-05-08 01:11 -20.91811 -49.54109 4695 ft 162 kts 43°
2026-05-08 01:11 -20.91094 -49.53192 4528 ft 161 kts 45°
2026-05-08 01:11 -20.90378 -49.52253 4319 ft 163 kts 46°
2026-05-08 01:12 -20.89665 -49.51309 4136 ft 163 kts 46°
2026-05-08 01:12 -20.89204 -49.50695 3993 ft 156 kts 45°
2026-05-08 01:12 -20.88551 -49.49823 3820 ft 144 kts 45°
2026-05-08 01:12 -20.87948 -49.49017 3630 ft 134 kts 45°
2026-05-08 01:13 -20.87388 -49.48271 3450 ft 126 kts 45°
2026-05-08 01:13 -20.86851 -49.47556 3297 ft 122 kts 45°
2026-05-08 01:13 -20.86318 -49.46845 3137 ft 123 kts 45°
2026-05-08 01:13 -20.85788 -49.46139 2944 ft 121 kts 46°
2026-05-08 01:14 -20.85256 -49.45432 2787 ft 123 kts 45°
2026-05-08 01:14 -20.84710 -49.44706 2636 ft 128 kts 46°
2026-05-08 01:14 -20.84136 -49.43942 2472 ft 133 kts 47°
2026-05-08 01:14 -20.83555 -49.43171 2270 ft 134 kts 54°
2026-05-08 01:15 -20.82977 -49.42377 2081 ft 137 kts 51°
2026-05-08 01:15 -20.82374 -49.41586 1901 ft 136 kts 51°
2026-05-08 01:15 -20.81823 -49.40842 1759 ft 94 kts 52°
2026-05-08 01:15 -20.81650 -49.40613 1758 ft 0 kts 52°
2026-05-08 01:16 -20.81639 -49.40598 1749 ft 7 kts 49°
2026-05-08 01:16 -20.81591 -49.40591 1751 ft 8 kts 326°
2026-05-08 01:16 -20.81542 -49.40607 1760 ft 8 kts 20°
2026-05-08 01:16 -20.81502 -49.40560 1759 ft 9 kts 51°
2026-05-08 01:17 -20.81457 -49.40500 1759 ft 11 kts 51°
2026-05-08 01:17 -20.81404 -49.40432 1762 ft 12 kts 47°
2026-05-08 01:17 -20.81335 -49.40432 1765 ft 10 kts 323°
2026-05-08 01:17 -20.81302 -49.40459 1760 ft 0 kts 321°